FW5225 Weather Reports


Display with metric or nautical units.
time (UTC)temp
F
wind
direction
speed
MPH
gust
MPH
rain 1hr
in
rain 24hr
in
rain mn
in
humidity
%
barometer
mb
20260906225015 103 264 7.0 12.0 0.00 0.00 0.00 23 1005.0
20260906224519 103 349 1.0 9.0 0.00 0.00 0.00 23 1005.0
20260906224015 103 349 5.0 9.0 0.00 0.00 0.00 24 1005.0
20260906223519 103 24 3.0 14.0 0.00 0.00 0.00 24 1005.0
20260906223015 103 284 5.0 14.0 0.00 0.00 0.00 23 1005.0
20260906222513 103 291 1.0 5.0 0.00 0.00 0.00 24 1005.0
20260906222014 102 290 1.0 8.0 0.00 0.00 0.00 23 1005.1
20260906221513 103 42 3.0 10.0 0.00 0.00 0.00 23 1005.1
20260906221012 103 322 5.0 10.0 0.00 0.00 0.00 24 1005.2
20260906220512 103 297 4.0 10.0 0.00 0.00 0.00 22 1005.3
20260906220012 104 281 2.0 10.0 0.00 0.00 0.00 22 1005.4
20260906215511 104 346 3.0 10.0 0.00 0.00 0.00 22 1005.5
20260906215010 103 178 1.0 9.0 0.00 0.00 0.00 22 1005.5
20260906214517 103 344 3.0 9.0 0.00 0.00 0.00 22 1005.6
20260906214008 103 270 3.0 9.0 0.00 0.00 0.00 22 1005.7
20260906213507 103 243 4.0 9.0 0.00 0.00 0.00 22 1005.8
20260906213007 103 266 5.0 9.0 0.00 0.00 0.00 23 1005.9
20260906212507 103 248 1.0 10.0 0.00 0.00 0.00 22 1005.9
20260906212006 103 267 4.0 10.0 0.00 0.00 0.00 23 1005.9
20260906211505 103 345 5.0 10.0 0.00 0.00 0.00 23 1005.9
20260906211004 103 252 1.0 7.0 0.00 0.00 0.00 23 1006.0
20260906210504 103 301 3.0 11.0 0.00 0.00 0.00 23 1006.1
20260906210005 103 286 5.0 11.0 0.00 0.00 0.00 23 1006.2
20260906205503 103 277 2.0 7.0 0.00 0.00 0.00 23 1006.2
20260906205001 102 243 1.0 9.0 0.00 0.00 0.00 23 1006.2
20260906204502 102 259 4.0 9.0 0.00 0.00 0.00 24 1006.2
20260906204002 102 335 3.0 11.0 0.00 0.00 0.00 25 1006.1
20260906203600 102 277 3.0 11.0 0.00 0.00 0.00 24 1006.2
20260906203100 101 15 1.0 9.0 0.00 0.00 0.00 23 1006.4
20260906202601 102 199 3.0 10.0 0.00 0.00 0.00 23 1006.4
20260906202059 102 257 4.0 11.0 0.00 0.00 0.00 23 1006.4
20260906201611 102 271 4.0 9.0 0.00 0.00 0.00 23 1006.4
20260906201058 101 217 1.0 5.0 0.00 0.00 0.00 24 1006.4
20260906200557 100 238 0.0 10.0 0.00 0.00 0.00 24 1006.6
20260906200057 100 46 3.0 10.0 0.00 0.00 0.00 26 1006.6
20260906195556 100 290 2.0 7.0 0.00 0.00 0.00 24 1006.7
20260906195055 100 262 3.0 7.0 0.00 0.00 0.00 24 1006.6
20260906194555 100 300 1.0 10.0 0.00 0.00 0.00 24 1006.8
20260906194054 100 275 4.0 10.0 0.00 0.00 0.00 24 1006.8
20260906193553 100 223 2.0 9.0 0.00 0.00 0.00 25 1006.8
20260906193053 100 282 3.0 8.0 0.00 0.00 0.00 24 1006.9
20260906192553 99 272 2.0 6.0 0.00 0.00 0.00 25 1006.9
20260906192052 99 222 2.0 8.0 0.00 0.00 0.00 25 1006.9
20260906191551 99 297 3.0 9.0 0.00 0.00 0.00 26 1006.9
20260906191051 99 248 3.0 11.0 0.00 0.00 0.00 26 1007.1
20260906190555 99 275 7.0 11.0 0.00 0.00 0.00 24 1007.2
20260906190106 100 236 4.0 10.0 0.00 0.00 0.00 24 1007.2
20260906185556 100 281 3.0 10.0 0.00 0.00 0.00 25 1007.3
20260906185051 101 327 2.0 6.0 0.00 0.00 0.00 24 1007.3
20260906184550 101 267 1.0 6.0 0.00 0.00 0.00 24 1007.5
20260906184049 101 331 1.0 7.0 0.00 0.00 0.00 23 1007.5
20260906183549 100 174 2.0 7.0 0.00 0.00 0.00 24 1007.6
20260906183104 101 201 2.0 6.0 0.00 0.00 0.00 24 1007.6
20260906182550 101 177 1.0 6.0 0.00 0.00 0.00 24 1007.8
20260906182047 101 174 1.0 4.0 0.00 0.00 0.00 24 1007.8
20260906181545 100 261 0.0 3.0 0.00 0.00 0.00 25 1007.9
20260906181049 99 190 1.0 4.0 0.00 0.00 0.00 25 1008.1
20260906180545 99 117 0.0 4.0 0.00 0.00 0.00 25 1008.2
20260906180100 99 217 0.0 4.0 0.00 0.00 0.00 25 1008.3
20260906175544 99 168 1.0 4.0 0.00 0.00 0.00 26 1008.3
20260906175041 99 5 0.0 3.0 0.00 0.00 0.00 26 1008.4
20260906174541 98 238 0.0 3.0 0.00 0.00 0.00 26 1008.4
20260906174040 98 169 1.0 3.0 0.00 0.00 0.00 27 1008.4
20260906173540 97 102 0.0 3.0 0.00 0.00 0.00 27 1008.5
20260906173039 97 98 0.0 4.0 0.00 0.00 0.00 28 1008.5
20260906172537 97 130 0.0 4.0 0.00 0.00 0.00 28 1008.6
20260906172036 96 153 0.0 3.0 0.00 0.00 0.00 28 1008.6
20260906171535 96 233 1.0 3.0 0.00 0.00 0.00 29 1008.6
20260906171036 96 105 1.0 3.0 0.00 0.00 0.00 29 1008.6
20260906170532 96 141 1.0 3.0 0.00 0.00 0.00 29 1008.6
20260906170103 95 160 0.0 3.0 0.00 0.00 0.00 31 1008.6
20260906165529 94 88 1.0 3.0 0.00 0.00 0.00 31 1008.7
20260906165030 93 155 0.0 3.0 0.00 0.00 0.00 31 1008.6
20260906164526 93 205 0.0 2.0 0.00 0.00 0.00 32 1008.7
20260906164026 93 267 0.0 2.0 0.00 0.00 0.00 32 1008.6
20260906163524 93 236 0.0 3.0 0.00 0.00 0.00 32 1008.6
20260906163024 93 156 1.0 3.0 0.00 0.00 0.00 32 1008.6
20260906162527 92 109 0.0 3.0 0.00 0.00 0.00 33 1008.5
20260906162022 92 194 1.0 3.0 0.00 0.00 0.00 33 1008.5
20260906161522 92 134 0.0 3.0 0.00 0.00 0.00 34 1008.5
20260906161021 91 126 0.0 2.0 0.00 0.00 0.00 35 1008.6
20260906160519 91 162 0.0 2.0 0.00 0.00 0.00 36 1008.5
20260906160018 90 12 0.0 2.0 0.00 0.00 0.00 37 1008.6
20260906155523 90 167 0.0 3.0 0.00 0.00 0.00 38 1008.6
20260906155014 90 148 0.0 3.0 0.00 0.00 0.00 38 1008.7
20260906154520 89 184 1.0 3.0 0.00 0.00 0.00 38 1008.7
20260906154014 89 109 1.0 5.0 0.00 0.00 0.00 38 1008.7
20260906153512 89 105 2.0 5.0 0.00 0.00 0.00 38 1008.7
20260906153016 89 141 0.0 3.0 0.00 0.00 0.00 38 1008.6
20260906152513 89 138 1.0 3.0 0.00 0.00 0.00 38 1008.6
20260906152011 88 140 0.0 2.0 0.00 0.00 0.00 39 1008.6
20260906151508 88 175 0.0 2.0 0.00 0.00 0.00 39 1008.5
20260906151006 88 130 0.0 2.0 0.00 0.00 0.00 39 1008.5
20260906150506 87 159 0.0 4.0 0.00 0.00 0.00 40 1008.5
20260906150005 87 153 0.0 4.0 0.00 0.00 0.00 40 1008.5
20260906145505 87 130 1.0 3.0 0.00 0.00 0.00 40 1008.4
20260906145002 85 126 0.0 2.0 0.00 0.00 0.00 42 1008.3
20260906144500 85 119 0.0 2.0 0.00 0.00 0.00 42 1008.3
20260906144100 84 125 0.0 2.0 0.00 0.00 0.00 45 1008.3
20260906143559 84 228 0.0 1.0 0.00 0.00 0.00 47 1008.3
20260906143128 83 228 0.0 1.0 0.00 0.00 0.00 47 1008.2
20260906142600 83 228 0.0 2.0 0.00 0.00 0.00 46 1008.2
20260906142057 83 228 0.0 2.0 0.00 0.00 0.00 48 1008.2
20260906141555 82 157 0.0 2.0 0.00 0.00 0.00 49 1008.0
20260906141056 82 157 0.0 2.0 0.00 0.00 0.00 52 1008.0
20260906140555 81 157 0.0 0.0 0.00 0.00 0.00 50 1007.9
20260906140054 81 157 0.0 2.0 0.00 0.00 0.00 47 1008.0
20260906135553 81 157 0.0 2.0 0.00 0.00 0.00 47 1007.9
20260906135054 80 188 0.0 0.0 0.00 0.00 0.00 47 1007.9
20260906134558 80 188 0.0 2.0 0.00 0.00 0.00 48 1007.9
20260906134049 80 271 0.0 0.0 0.00 0.00 0.00 49 1007.9
20260906133551 80 271 0.0 0.0 0.00 0.00 0.00 45 1007.8
20260906133049 80 271 0.0 0.0 0.00 0.00 0.00 44 1007.8
20260906132547 80 271 0.0 0.0 0.00 0.00 0.00 44 1007.8
20260906132046 80 41 0.0 4.0 0.00 0.00 0.00 47 1007.7
20260906131549 80 41 2.0 4.0 0.00 0.00 0.00 44 1007.6
20260906131045 80 24 0.0 3.0 0.00 0.00 0.00 47 1007.6
20260906130545 80 57 0.0 4.0 0.00 0.00 0.00 46 1007.6
20260906130051 80 71 1.0 4.0 0.00 0.00 0.00 45 1007.6
20260906125545 80 61 1.0 3.0 0.00 0.00 0.00 44 1007.5
20260906125045 81 38 0.0 3.0 0.00 0.00 0.00 45 1007.5
20260906124547 81 65 1.0 3.0 0.00 0.00 0.00 43 1007.4
20260906124045 81 314 0.0 0.0 0.00 0.00 0.00 45 1007.4
20260906123545 81 295 0.0 0.0 0.00 0.00 0.00 46 1007.3
20260906123112 81 295 0.0 0.0 0.00 0.00 0.00 45 1007.3
20260906122543 80 295 0.0 2.0 0.00 0.00 0.00 45 1007.3
20260906122044 80 295 0.0 4.0 0.00 0.00 0.00 45 1007.2
20260906121544 80 295 1.0 4.0 0.00 0.00 0.00 47 1007.3
20260906121043 80 122 0.0 2.0 0.00 0.00 0.00 44 1007.2
20260906120543 80 298 0.0 0.0 0.00 0.00 0.00 45 1007.4
20260906120043 80 298 0.0 0.0 0.00 0.00 0.00 47 1007.3
20260906115542 80 298 0.0 0.0 0.00 0.00 0.00 45 1007.3
20260906115042 80 298 0.0 0.0 0.00 0.00 0.00 47 1007.3
20260906114541 81 298 0.0 0.0 0.00 0.00 0.00 45 1007.3
20260906114043 81 298 0.0 0.0 0.00 0.00 0.00 48 1007.3
20260906113540 81 298 0.0 1.0 0.00 0.00 0.00 46 1007.3
20260906113042 81 298 0.0 1.0 0.00 0.00 0.00 46 1007.2
20260906112538 81 298 0.0 0.0 0.00 0.00 0.00 43 1007.2
20260906112038 81 298 0.0 0.0 0.00 0.00 0.00 44 1007.2
20260906111538 82 298 0.0 0.0 0.00 0.00 0.00 44 1007.2
20260906111037 82 298 0.0 0.0 0.00 0.00 0.00 45 1007.2
20260906110536 82 298 0.0 2.0 0.00 0.00 0.00 45 1007.2
20260906110036 82 298 0.0 2.0 0.00 0.00 0.00 42 1007.2
20260906105535 82 298 0.0 2.0 0.00 0.00 0.00 42 1007.3
20260906105034 82 298 0.0 2.0 0.00 0.00 0.00 44 1007.3
20260906104534 82 298 0.0 2.0 0.00 0.00 0.00 42 1007.3
20260906104037 82 298 0.0 0.0 0.00 0.00 0.00 44 1007.3
20260906103535 82 298 0.0 0.0 0.00 0.00 0.00 41 1007.3
20260906103033 82 298 0.0 0.0 0.00 0.00 0.00 43 1007.3
20260906102534 82 298 0.0 0.0 0.00 0.00 0.00 41 1007.3
20260906102033 82 298 0.0 2.0 0.00 0.00 0.00 41 1007.2
20260906101533 82 298 0.0 2.0 0.00 0.00 0.00 42 1007.1
20260906101032 82 298 0.0 2.0 0.00 0.00 0.00 42 1007.1
20260906100534 82 298 0.0 2.0 0.00 0.00 0.00 43 1007.1
20260906100032 83 298 0.0 0.0 0.00 0.00 0.00 42 1007.1
20260906095532 83 298 0.0 1.0 0.00 0.00 0.00 45 1007.2
20260906095034 83 298 0.0 1.0 0.00 0.00 0.00 44 1007.1
20260906094530 83 298 0.0 2.0 0.00 0.00 0.00 44 1007.1
20260906094030 83 298 0.0 2.0 0.00 0.00 0.00 43 1007.0
20260906093530 83 298 0.0 2.0 0.00 0.00 0.00 40 1007.0
20260906093029 83 298 0.0 2.0 0.00 0.00 0.00 40 1007.0
20260906092527 84 298 0.0 0.0 0.00 0.00 0.00 42 1007.0
20260906092026 84 298 0.0 0.0 0.00 0.00 0.00 42 1007.0
20260906091532 84 298 0.0 2.0 0.00 0.00 0.00 41 1007.1
20260906091025 84 298 0.0 2.0 0.00 0.00 0.00 40 1007.1
20260906090524 84 298 0.0 2.0 0.00 0.00 0.00 42 1007.1
20260906090024 84 298 0.0 2.0 0.00 0.00 0.00 42 1007.1
20260906085527 85 298 0.0 2.0 0.00 0.00 0.00 41 1007.1
20260906085023 85 159 0.0 2.0 0.00 0.00 0.00 39 1007.1
20260906084523 85 326 0.0 2.0 0.00 0.00 0.00 38 1007.2
20260906084026 85 326 0.0 2.0 0.00 0.00 0.00 38 1007.2
20260906083524 85 326 0.0 1.0 0.00 0.00 0.00 39 1007.3
20260906083027 85 315 0.0 0.0 0.00 0.00 0.00 39 1007.2
20260906082522 85 315 0.0 0.0 0.00 0.00 0.00 41 1007.2
20260906082022 85 315 0.0 0.0 0.00 0.00 0.00 37 1007.2
20260906081521 85 315 0.0 2.0 0.00 0.00 0.00 37 1007.2
20260906081021 85 310 0.0 2.0 0.00 0.00 0.00 37 1007.3
20260906080522 85 62 0.0 0.0 0.00 0.00 0.00 40 1007.3
20260906080028 85 62 0.0 2.0 0.00 0.00 0.00 42 1007.4
20260906075519 85 62 0.0 2.0 0.00 0.00 0.00 37 1007.5
20260906075019 86 62 0.0 0.0 0.00 0.00 0.00 37 1007.5
20260906074519 86 62 0.0 0.0 0.00 0.00 0.00 39 1007.5
20260906074019 86 62 0.0 0.0 0.00 0.00 0.00 37 1007.5
20260906073518 86 62 0.0 0.0 0.00 0.00 0.00 37 1007.6
20260906073018 86 62 0.0 2.0 0.00 0.00 0.00 38 1007.6
20260906072516 86 62 0.0 3.0 0.00 0.00 0.00 37 1007.7
20260906072016 86 57 0.0 4.0 0.00 0.00 0.00 38 1007.7
20260906071514 85 29 0.0 4.0 0.00 0.00 0.00 40 1007.7
20260906071015 85 33 0.0 2.0 0.00 0.00 0.00 41 1007.8
20260906070512 85 5 0.0 0.0 0.00 0.00 0.00 42 1007.8
20260906070011 85 5 0.0 0.0 0.00 0.00 0.00 44 1007.9
20260906065511 85 5 0.0 0.0 0.00 0.00 0.00 45 1007.9
20260906065011 85 5 0.0 0.0 0.00 0.00 0.00 44 1007.9
20260906064511 85 5 0.0 0.0 0.00 0.00 0.00 43 1007.8
20260906064011 85 5 0.0 0.0 0.00 0.00 0.00 44 1007.8
20260906063510 85 5 0.0 0.0 0.00 0.00 0.00 39 1007.8
20260906063010 85 5 0.0 0.0 0.00 0.00 0.00 41 1007.8
20260906062509 85 5 0.0 0.0 0.00 0.00 0.00 42 1007.8
20260906062010 85 111 0.0 0.0 0.00 0.00 0.00 40 1007.8
20260906061510 85 111 0.0 2.0 0.00 0.00 0.00 41 1007.8
20260906061009 86 40 0.0 2.0 0.00 0.00 0.00 43 1007.8
20260906060511 86 257 0.0 0.0 0.00 0.00 0.00 45 1007.7
20260906060008 86 257 0.0 0.0 0.00 0.00 0.00 48 1007.7
20260906055510 87 257 0.0 0.0 0.00 0.00 0.00 44 1007.8
20260906055008 87 257 0.0 0.0 0.00 0.00 0.00 44 1007.8
20260906054509 87 257 0.0 0.0 0.00 0.00 0.00 40 1007.8
20260906054009 87 257 0.0 0.0 0.00 0.00 0.00 44 1007.8
20260906053512 87 257 0.0 0.0 0.00 0.00 0.00 39 1007.9
20260906053008 87 257 0.0 0.0 0.00 0.00 0.00 37 1007.9
20260906052508 87 257 0.0 0.0 0.00 0.00 0.00 36 1007.8
20260906052009 87 257 0.0 0.0 0.00 0.00 0.00 41 1007.8
20260906051507 87 257 0.0 0.0 0.00 0.00 0.00 40 1007.8
20260906051009 87 257 0.0 1.0 0.00 0.00 0.00 42 1007.8
20260906050509 87 257 0.0 2.0 0.00 0.00 0.00 40 1007.9
20260906050008 87 257 0.0 2.0 0.00 0.00 0.00 36 1007.9
20260906045510 87 257 0.0 0.0 0.00 0.00 0.00 36 1007.9
20260906045008 87 257 0.0 0.0 0.00 0.00 0.00 44 1007.9
20260906044507 87 257 0.0 0.0 0.00 0.00 0.00 44 1007.9
20260906044010 87 257 0.0 0.0 0.00 0.00 0.00 39 1007.9
20260906043506 88 257 0.0 2.0 0.00 0.00 0.00 41 1008.0
20260906043006 88 257 0.0 2.0 0.00 0.00 0.00 36 1007.9
20260906042505 88 257 0.0 2.0 0.00 0.00 0.00 43 1008.0
20260906042005 88 257 0.0 0.0 0.00 0.00 0.00 38 1008.0
20260906041506 88 257 0.0 0.0 0.00 0.00 0.00 35 1008.0
20260906041008 88 257 0.0 0.0 0.00 0.00 0.00 36 1008.1
20260906040505 88 257 0.0 0.0 0.00 0.00 0.00 35 1008.0
20260906040008 89 257 0.0 0.0 0.00 0.00 0.00 38 1008.1
20260906035507 89 257 0.0 0.0 0.00 0.00 0.00 39 1008.0
20260906035005 89 257 0.0 0.0 0.00 0.00 0.00 38 1008.0
20260906034505 89 257 0.0 0.0 0.00 0.00 0.00 36 1007.9
20260906034004 90 257 0.0 0.0 0.00 0.00 0.00 36 1007.8
20260906033505 90 257 0.0 0.0 0.00 0.00 0.00 38 1007.7
20260906033012 90 257 0.0 0.0 0.00 0.00 0.00 36 1007.7
20260906032503 90 257 0.0 0.0 0.00 0.00 0.00 37 1007.5
20260906032004 90 257 0.0 0.0 0.00 0.00 0.00 35 1007.5
20260906031503 91 257 0.0 0.0 0.00 0.00 0.00 35 1007.4
20260906031004 91 257 0.0 0.0 0.00 0.00 0.00 35 1007.4
20260906030504 91 257 0.0 2.0 0.00 0.00 0.00 33 1007.3
20260906030004 91 257 0.0 2.0 0.00 0.00 0.00 32 1007.3
20260906025503 91 257 0.0 0.0 0.00 0.00 0.00 33 1007.2
20260906025004 92 257 0.0 0.0 0.00 0.00 0.00 33 1007.2
20260906024502 92 257 0.0 0.0 0.00 0.00 0.00 33 1007.2
20260906024003 92 257 0.0 0.0 0.00 0.00 0.00 31 1007.1
20260906023504 92 257 0.0 2.0 0.00 0.00 0.00 31 1007.2
20260906023002 92 257 0.0 2.0 0.00 0.00 0.00 30 1007.1
20260906022505 92 302 0.0 2.0 0.00 0.00 0.00 30 1007.1
20260906022003 92 302 0.0 2.0 0.00 0.00 0.00 29 1007.1
20260906021502 93 275 0.0 4.0 0.00 0.00 0.00 29 1007.2
20260906021001 93 293 2.0 4.0 0.00 0.00 0.00 29 1007.2
20260906020602 93 304 1.0 5.0 0.00 0.00 0.00 29 1007.2
20260906020107 93 311 2.0 5.0 0.00 0.00 0.00 29 1007.3
20260906015601 93 315 2.0 5.0 0.00 0.00 0.00 29 1007.3
20260906015059 93 304 3.0 8.0 0.00 0.00 0.00 29 1007.3
20260906014602 93 329 2.0 8.0 0.00 0.00 0.00 29 1007.4
20260906014059 93 311 1.0 5.0 0.00 0.00 0.00 29 1007.4
20260906013601 94 331 2.0 5.0 0.00 0.00 0.00 29 1007.4
20260906013109 94 284 2.0 8.0 0.00 0.00 0.00 29 1007.5
20260906012559 94 286 4.0 9.0 0.00 0.00 0.00 29 1007.5
20260906012058 94 297 6.0 9.0 0.00 0.00 0.00 28 1007.6
20260906011606 94 294 4.0 9.0 0.00 0.00 0.00 28 1007.5
20260906011058 94 261 5.0 11.0 0.00 0.00 0.00 28 1007.4
20260906010557 94 310 7.0 11.0 0.00 0.00 0.00 28 1007.5
20260906010059 95 302 5.0 9.0 0.00 0.00 0.00 28 1007.5
20260906005557 95 301 5.0 9.0 0.00 0.00 0.00 28 1007.5
20260906005057 95 265 3.0 9.0 0.00 0.00 0.00 28 1007.4
20260906004604 95 292 4.0 8.0 0.00 0.00 0.00 27 1007.4
20260906004057 95 293 3.0 7.0 0.00 0.00 0.00 27 1007.3
20260906003558 95 321 2.0 9.0 0.00 0.00 0.00 27 1007.4
20260906003103 95 338 3.0 9.0 0.00 0.00 0.00 28 1007.4
20260906002556 96 296 3.0 10.0 0.00 0.00 0.00 27 1007.3
20260906002056 96 322 5.0 10.0 0.00 0.00 0.00 27 1007.4
20260906001556 96 301 2.0 8.0 0.00 0.00 0.00 27 1007.3
20260906001057 96 343 4.0 12.0 0.00 0.00 0.00 26 1007.3
20260906000555 97 319 6.0 12.0 0.00 0.00 0.00 26 1007.3
20260906000058 97 292 2.0 12.0 0.00 0.00 0.00 27 1007.4
20260905235556 97 276 6.0 12.0 0.00 0.00 0.00 26 1007.5
20260905235056 98 270 5.0 10.0 0.00 0.00 0.00 26 1007.4
20260905234556 98 324 6.0 10.0 0.00 0.00 0.00 26 1007.4
20260905234056 98 313 2.0 9.0 0.00 0.00 0.00 26 1007.3
20260905233556 98 281 3.0 10.0 0.00 0.00 0.00 25 1007.3
20260905233054 98 289 6.0 10.0 0.00 0.00 0.00 25 1007.3
20260905232554 98 301 6.0 10.0 0.00 0.00 0.00 25 1007.3
20260905232054 98 290 3.0 10.0 0.00 0.00 0.00 25 1007.3
20260905231554 98 281 4.0 11.0 0.00 0.00 0.00 25 1007.3
20260905231053 99 274 5.0 11.0 0.00 0.00 0.00 24 1007.3
20260905230553 99 304 1.0 7.0 0.00 0.00 0.00 24 1007.4
20260905230054 99 300 3.0 9.0 0.00 0.00 0.00 24 1007.4
20260905225553 100 294 5.0 10.0 0.00 0.00 0.00 23 1007.4